FW7576 Weather Reports


time (UTC)temp
C
wind
direction
speed
KPH
gust
KPH
rain 1hr
cm
rain 24hr
cm
rain mn
cm
humidity
%
barometer
mb
20260510124539 8 243 3.2 4.8 0.00 0.00 0.00 62 1018.3
20260510123036 7 302 1.6 6.4 0.00 0.00 0.00 64 1018.1
20260510121531 6 305 3.2 4.8 0.00 0.00 0.00 67 1018.1
20260510120038 6 0 0.0 3.2 0.00 0.00 0.00 71 1018.0
20260510114537 5 28 0.0 1.6 0.00 0.00 0.00 76 1017.7
20260510113037 3 0 0.0 1.6 0.00 0.00 0.00 79 1017.6
20260510111535 2 0 0.0 0.0 0.00 0.00 0.00 83 1017.6
20260510110042 1 0 0.0 0.0 0.00 0.00 0.00 84 1017.3
20260510104539 1 0 0.0 1.6 0.00 0.00 0.00 84 1017.2
20260510103041 1 0 0.0 0.0 0.00 0.00 0.00 84 1017.0
20260510101535 1 0 0.0 0.0 0.00 0.00 0.00 84 1016.8
20260510100038 1 0 0.0 0.0 0.00 0.00 0.00 83 1016.7
20260510094542 2 0 0.0 0.0 0.00 0.00 0.00 83 1016.3
20260510093041 2 0 0.0 0.0 0.00 0.00 0.00 82 1016.2
20260510091539 2 0 0.0 0.0 0.00 0.00 0.00 81 1016.0
20260510090042 2 0 0.0 0.0 0.00 0.00 0.00 80 1016.0
20260510084538 2 0 0.0 0.0 0.00 0.00 0.00 80 1015.7
20260510083036 2 0 0.0 0.0 0.00 0.00 0.00 77 1015.5
20260510081551 3 0 0.0 0.0 0.00 0.00 0.00 77 1015.4
20260510080143 3 0 0.0 0.0 0.00 0.00 0.00 76 1015.2
20260510074539 3 0 0.0 0.0 0.00 0.00 0.00 75 1014.8
20260510073038 3 0 0.0 0.0 0.00 0.00 0.00 74 1014.8
20260510071535 3 0 0.0 0.0 0.00 0.00 0.00 73 1014.5
20260510070040 4 0 0.0 0.0 0.00 0.00 0.00 71 1014.4
20260510064536 5 0 0.0 0.0 0.00 0.00 0.00 69 1014.4
20260510063035 5 0 0.0 1.6 0.00 0.00 0.00 66 1014.2
20260510061539 6 28 0.0 6.4 0.00 0.00 0.00 65 1014.0
20260510060037 6 51 0.0 1.6 0.00 0.00 0.00 66 1013.9
20260510054546 6 51 0.0 4.8 0.00 0.00 0.00 65 1013.9
20260510053034 6 46 3.2 8.0 0.00 0.00 0.00 64 1013.7
20260510051536 7 46 6.4 14.5 0.00 0.00 0.00 63 1013.6
20260510050051 7 60 4.8 17.7 0.00 0.00 0.00 62 1013.5
20260510044546 7 55 4.8 14.5 0.00 0.00 0.00 62 1013.2
20260510043038 7 62 9.7 22.5 0.00 0.00 0.00 61 1013.0
20260510041548 8 61 8.0 22.5 0.00 0.00 0.00 57 1012.8
20260510040039 9 12 9.7 29.0 0.00 0.00 0.00 51 1012.4
20260510034537 11 34 12.9 20.9 0.00 0.00 0.00 40 1011.8
20260510033043 11 304 0.0 4.8 0.00 0.00 0.00 40 1011.1
20260510031550 12 0 0.0 6.4 0.00 0.00 0.00 39 1010.9
20260510030038 12 349 0.0 4.8 0.00 0.00 0.00 39 1010.9
20260510024553 13 325 0.0 6.4 0.00 0.00 0.00 37 1010.7
20260510023036 13 32 3.2 16.1 0.00 0.00 0.00 37 1010.4
20260510021535 13 278 4.8 9.7 0.00 0.00 0.00 37 1010.1
20260510020032 13 322 8.0 19.3 0.00 0.00 0.00 39 1009.8
20260510014540 14 53 3.2 9.7 0.00 0.00 0.00 40 1009.4
20260510013040 14 340 4.8 12.9 0.00 0.00 0.00 39 1009.1
20260510011538 15 332 3.2 11.3 0.00 0.00 0.00 38 1008.7
20260510010038 15 360 3.2 17.7 0.00 0.00 0.00 37 1008.2
20260510004538 16 347 8.0 19.3 0.00 0.00 0.00 37 1008.0
20260510003041 16 294 4.8 17.7 0.00 0.00 0.00 37 1007.8
20260510001539 16 329 8.0 16.1 0.00 0.00 0.00 36 1007.6
20260510000041 17 63 6.4 17.7 0.00 0.00 0.00 37 1007.3
20260509234538 17 8 8.0 17.7 0.00 0.00 0.00 37 1007.1
20260509233046 17 293 4.8 20.9 0.00 0.00 0.00 37 1007.0
20260509231535 17 304 8.0 22.5 0.00 0.00 0.00 38 1006.9
20260509230035 17 316 9.7 25.7 0.00 0.00 0.00 37 1006.5
20260509224540 17 318 12.9 32.2 0.00 0.00 0.00 36 1006.4
20260509223045 17 326 8.0 30.6 0.00 0.00 0.00 36 1006.2
20260509221542 18 283 8.0 25.7 0.00 0.00 0.00 37 1006.0
20260509220040 17 358 12.9 27.4 0.00 0.00 0.00 38 1005.8
20260509214537 18 7 12.9 29.0 0.00 0.00 0.00 37 1005.5
20260509213036 18 320 12.9 25.7 0.00 0.00 0.00 37 1005.3
20260509211540 18 288 14.5 29.0 0.00 0.00 0.00 36 1005.0
20260509210050 18 290 8.0 38.6 0.00 0.00 0.00 37 1004.9
20260509204537 18 321 9.7 35.4 0.00 0.00 0.00 37 1004.4
20260509203036 18 348 14.5 32.2 0.00 0.00 0.00 40 1004.6
20260509201535 18 343 14.5 32.2 0.00 0.00 0.00 40 1004.3
20260509200043 19 339 11.3 35.4 0.00 0.00 0.00 36 1004.0
20260509194539 18 249 12.9 29.0 0.00 0.00 0.00 36 1003.7
20260509193037 19 309 11.3 24.1 0.00 0.00 0.00 38 1003.4
20260509191537 20 293 16.1 30.6 0.00 0.00 0.00 35 1003.4
20260509190040 20 295 11.3 29.0 0.00 0.00 0.00 37 1003.3
20260509184536 20 245 12.9 33.8 0.00 0.00 0.00 37 1003.1
20260509183039 19 273 11.3 29.0 0.00 0.00 0.00 36 1003.1
20260509181534 19 267 19.3 37.0 0.00 0.00 0.00 36 1003.1
20260509180035 19 287 16.1 40.2 0.00 0.00 0.00 35 1003.1
20260509174536 20 243 11.3 33.8 0.00 0.00 0.00 36 1003.2
20260509173103 18 277 12.9 25.7 0.00 0.00 0.00 35 1003.2
20260509171539 18 233 12.9 30.6 0.00 0.00 0.00 36 1003.3
20260509170049 17 250 12.9 24.1 0.00 0.00 0.00 36 1003.3
20260509164537 17 256 8.0 20.9 0.00 0.00 0.00 36 1003.4
20260509163041 17 221 4.8 14.5 0.00 0.00 0.00 36 1003.4
20260509161542 17 314 8.0 22.5 0.00 0.00 0.00 35 1003.7
20260509160041 17 290 4.8 14.5 0.00 0.00 0.00 34 1003.8
20260509154538 16 276 4.8 16.1 0.00 0.00 0.00 37 1003.7
20260509153036 16 354 8.0 19.3 0.00 0.00 0.00 37 1003.6
20260509151543 16 300 6.4 17.7 0.00 0.00 0.00 42 1003.4
20260509150043 16 274 4.8 14.5 0.00 0.00 0.00 43 1003.1
20260509144539 16 296 3.2 14.5 0.00 0.00 0.00 44 1002.8
20260509143047 16 290 6.4 9.7 0.00 0.00 0.00 44 1002.7
20260509141534 16 231 8.0 20.9 0.00 0.00 0.00 43 1002.8
20260509140043 16 257 8.0 16.1 0.00 0.00 0.00 46 1002.6
20260509134542 15 259 4.8 14.5 0.00 0.00 0.00 51 1002.5
20260509133038 15 240 6.4 17.7 0.00 0.00 0.00 55 1002.6
20260509131545 14 240 4.8 19.3 0.00 0.00 0.00 63 1002.4
20260509130059 13 262 9.7 22.5 0.00 0.00 0.00 65 1002.3